Weather History for KDAW - January, 2012

Change the Weather History Date:

Monday, January 2, 2012

  Actual Average (KSFM) Record (KSFM)
Temperature  
Mean Temperature 37 °F -  
Max Temperature 44 °F 32 °F 46 °F (2012)
Min Temperature 30 °F 15 °F -7 °F (1999)
Degree Days  
Heating Degree Days 28    
Moisture  
Dew Point 29 °F    
Average Humidity 71    
Maximum Humidity 100    
Minimum Humidity 41    
Precipitation  
Precipitation 0.04 in - - ()
Sea Level Pressure  
Sea Level Pressure 29.54 in    
Wind  
Wind Speed 3 mph (SW)    
Max Wind Speed 9 mph    
Max Gust Speed 22 mph    
Visibility 7 miles    
Events Fog , Rain    
Averages and records for this station are not official NWS values.
T = Trace of Precipitation, MM = Missing Value Source: NWS Daily Summary

Daily Weather History Graph

Daily Weather History Graph

Search for Another Location

Airport or City:

Trip Planner

Search our weather history database for the weather conditions in past years. The results will help you decide how hot, cold, wet, or windy it might be!

Date:

Astronomy

Jan. 02, 2012 Rise Set
Actual Time 7:16 AM EST 4:19 PM EST
Civil Twilight 6:43 AM EST 4:51 PM EST
Nautical Twilight 6:07 AM EST 5:27 PM EST
Astronomical Twilight 5:33 AM EST 6:02 PM EST
Moon 11:38 AM EST (1/2) 1:01 AM EST (1/2)
Length of Visible Light 10h 08m
Length of Day
9h 03m
Waxing Gibbous, 63% of the Moon is Illuminated
Jan 2
Waxing Gibbous
Jan 9
Full
Jan 16
Last Quarter
Jan 23
New
Jan 30
First Quarter

Hourly Weather History & Observations

Time (EST) Temp. Windchill Dew Point Humidity Pressure Visibility Wind Dir Wind Speed Gust Speed Precip Events Conditions
12:29 AM 42.8 °F 41.1 °F 42.8 °F 100% 29.59 in 2.0 mi SSE 3.5 mph - 0.02 in Rain Light Rain
12:51 AM 42.1 °F - 42.1 °F 100% 29.57 in 1.2 mi Calm Calm - 0.04 in Rain Light Rain
1:04 AM 42.8 °F 40.1 °F 42.8 °F 100% 29.57 in 0.8 mi SSE 4.6 mph - 0.00 in Rain Light Rain
1:51 AM 43.0 °F 40.3 °F 42.1 °F 97% 29.54 in 0.5 mi SSE 4.6 mph - 0.00 in Fog Fog
2:51 AM 43.0 °F 41.3 °F 42.1 °F 97% 29.50 in 0.2 mi South 3.5 mph - N/A Fog Fog
3:35 AM 42.8 °F - 42.8 °F 100% 29.49 in 0.5 mi Calm Calm - N/A Fog Fog
3:51 AM 43.0 °F 41.3 °F 43.0 °F 100% 29.48 in 0.5 mi South 3.5 mph - N/A Fog Fog
4:06 AM 44.6 °F - 42.8 °F 93% 29.47 in 1.2 mi Calm Calm - N/A   Overcast
4:17 AM 44.6 °F 41.4 °F 42.8 °F 93% 29.48 in 2.5 mi Variable 5.8 mph - 0.00 in Rain Light Rain
4:24 AM 44.6 °F 40.7 °F 42.8 °F 93% 29.48 in 6.0 mi Variable 6.9 mph - 0.00 in Rain Light Rain
4:34 AM 42.8 °F 40.1 °F 41.0 °F 93% 29.48 in 10.0 mi West 4.6 mph - 0.00 in   Overcast
4:51 AM 41.0 °F 35.8 °F 37.0 °F 86% 29.49 in 10.0 mi West 8.1 mph - 0.00 in   Overcast
5:51 AM 39.9 °F 36.7 °F 33.1 °F 77% 29.50 in 10.0 mi Variable 4.6 mph - N/A   Overcast
6:51 AM 39.0 °F 36.8 °F 30.0 °F 70% 29.50 in 10.0 mi Variable 3.5 mph - N/A   Overcast
7:51 AM 36.0 °F - 28.9 °F 76% 29.52 in 10.0 mi Calm Calm - N/A   Clear
8:51 AM 37.9 °F 35.5 °F 28.9 °F 70% 29.52 in 10.0 mi Variable 3.5 mph - N/A   Clear
9:51 AM 39.0 °F 36.8 °F 25.0 °F 57% 29.53 in 10.0 mi Variable 3.5 mph - N/A   Overcast
10:51 AM 39.9 °F 35.8 °F 23.0 °F 51% 29.52 in 10.0 mi Variable 5.8 mph 21.9 mph N/A   Clear
11:51 AM 41.0 °F 35.2 °F 21.9 °F 47% 29.50 in 10.0 mi WNW 9.2 mph - N/A   Scattered Clouds
12:51 PM 41.0 °F 35.8 °F 19.0 °F 41% 29.49 in 10.0 mi West 8.1 mph 21.9 mph N/A   Partly Cloudy
1:51 PM 41.0 °F 39.0 °F 19.0 °F 41% 29.50 in 10.0 mi Variable 3.5 mph 17.3 mph N/A   Clear
2:51 PM 39.9 °F 33.9 °F 19.0 °F 43% 29.53 in 10.0 mi West 9.2 mph - N/A   Scattered Clouds
3:51 PM 37.9 °F 35.5 °F 18.0 °F 45% 29.55 in 10.0 mi Variable 3.5 mph 20.7 mph N/A   Scattered Clouds
4:51 PM 36.0 °F 33.3 °F 18.0 °F 48% 29.57 in 10.0 mi Variable 3.5 mph - N/A   Clear
5:51 PM 35.1 °F - 18.0 °F 50% 29.60 in 10.0 mi Calm Calm - N/A   Clear
6:51 PM 33.1 °F - 18.0 °F 54% 29.62 in 10.0 mi Calm Calm - N/A   Clear
7:51 PM 33.1 °F 30.0 °F 17.1 °F 52% 29.63 in 10.0 mi Variable 3.5 mph - N/A   Clear
8:51 PM 30.9 °F - 17.1 °F 57% 29.63 in 10.0 mi Calm Calm - N/A   Clear
9:51 PM 32.0 °F 28.7 °F 16.0 °F 52% 29.65 in 10.0 mi Variable 3.5 mph - N/A   Clear
10:51 PM 30.9 °F - 16.0 °F 54% 29.64 in 10.0 mi Calm Calm - N/A   Clear
11:51 PM 30.0 °F - 16.0 °F 56% 29.64 in 10.0 mi Calm Calm - N/A   Clear